Date,TemperatureHighF,TemperatureAvgF,TemperatureLowF,DewpointHighF,DewpointAvgF,DewpointLowF,HumidityHigh,HumidityAvg,HumidityLow,PressureMaxIn,PressureMinIn,WindSpeedMaxMPH,WindSpeedAvgMPH,GustSpeedMaxMPH,PrecipitationSumIn
2013-1-1,36.0,30.1,19.0,24.0,16.3,5.0,70,56,44,29.92,29.72,7,2,15,0.01
2013-1-2,29.0,19.1,12.0,14.0,6.7,2.0,69,58,46,30.09,29.90,5,1,12,0.01
2013-1-3,24.0,12.5,2.0,8.0,-1.7,-8.0,66,53,31,30.14,30.00,2,0,8,0.00
2013-1-4,36.0,26.6,16.0,23.0,16.9,7.0,81,67,53,30.00,29.81,6,1,14,0.01
2013-1-5,40.0,31.9,23.0,23.0,19.5,15.0,78,61,43,30.26,29.85,5,1,12,0.03
2013-1-6,42.0,30.9,23.0,27.0,23.0,17.0,84,73,54,30.22,29.94,3,0,9,0.01
2013-1-7,38.0,30.4,24.0,27.0,21.3,15.0,85,70,45,30.40,29.96,3,0,7,0.00
2013-1-8,45.0,33.5,24.0,28.0,24.3,19.0,87,70,49,30.37,30.26,4,1,11,0.00
2013-1-9,42.0,34.2,23.0,33.0,26.6,19.0,87,74,57,30.40,30.00,3,1,13,0.00
2013-1-10,46.0,39.7,31.0,28.0,23.0,21.0,66,51,40,30.54,30.04,5,2,17,0.00
2013-1-11,38.0,32.0,25.0,33.0,25.1,20.0,89,76,62,30.53,30.22,1,0,3,0.10
2013-1-12,40.0,37.9,35.0,38.0,35.7,32.0,95,91,89,30.23,30.13,1,0,3,0.13
2013-1-13,50.0,44.3,39.0,47.0,42.2,37.0,93,92,89,30.16,29.99,2,0,7,0.02
2013-1-14,59.0,49.9,40.0,50.0,41.4,28.0,91,74,41,30.24,29.84,5,1,12,0.00
2013-1-15,40.0,35.8,30.0,28.0,24.3,23.0,77,63,52,30.32,30.22,2,0,5,0.00
2013-1-16,32.0,30.6,28.0,30.0,26.7,23.0,91,86,72,30.25,29.83,0,0,2,0.07
2013-1-17,39.0,32.7,28.0,33.0,25.8,13.0,91,77,52,30.09,29.83,4,0,11,0.24
2013-1-18,28.0,20.7,16.0,14.0,1.9,-5.0,59,44,30,30.44,30.04,4,1,14,0.01
2013-1-19,47.0,34.6,18.0,29.0,20.3,6.0,71,56,39,30.39,29.89,6,1,21,0.04
2013-1-20,51.0,39.7,27.0,31.0,24.2,9.0,72,55,36,29.91,29.54,10,2,22,0.01
2013-1-21,28.0,23.4,19.0,18.0,9.0,4.0,84,55,39,30.09,29.79,4,1,13,0.00
2013-1-22,23.0,18.2,11.0,17.0,6.3,-3.0,86,62,36,30.07,29.75,5,1,13,0.00
2013-1-23,14.0,9.4,5.0,-2.0,-7.6,-11.0,61,46,31,30.13,30.06,5,1,12,0.00
2013-1-24,18.0,9.0,0.0,-7.0,-9.5,-12.0,57,43,30,30.21,30.06,4,1,14,0.00
2013-1-25,22.0,14.1,6.0,9.0,-6.6,-12.0,74,39,25,30.30,30.06,3,1,10,0.00
2013-1-26,23.0,15.4,8.0,10.0,1.7,-7.0,82,57,31,30.23,30.01,4,1,10,0.00
2013-1-27,29.0,18.6,10.0,3.0,-0.2,-4.0,64,45,28,30.46,30.23,4,1,9,0.00
2013-1-28,30.0,22.3,15.0,23.0,11.7,0.0,88,65,38,30.45,30.01,1,0,6,0.00
2013-1-29,32.0,28.2,24.0,29.0,25.0,21.0,90,88,85,30.19,30.01,1,0,2,0.01
2013-1-30,59.0,46.3,31.0,56.0,43.4,28.0,93,90,84,30.15,29.47,6,2,20,0.17
2013-1-31,57.0,41.1,30.0,54.0,26.4,14.0,91,57,40,29.59,28.98,11,4,22,0.54
2013-2-1,31.0,27.0,21.0,15.0,7.5,2.0,55,43,34,30.08,29.59,5,2,14,0.02
2013-2-2,29.0,22.7,15.0,11.0,5.8,2.0,58,48,38,30.24,30.04,3,1,10,0.00
2013-2-3,25.0,22.9,19.0,20.0,17.1,10.0,86,78,53,30.05,29.73,1,0,6,0.00
2013-2-4,28.0,22.4,18.0,19.0,10.2,5.0,87,61,39,29.93,29.72,6,2,16,0.00
2013-2-5,28.0,23.3,19.0,20.0,12.0,7.0,87,62,50,30.02,29.93,2,0,6,0.00
2013-2-6,37.0,28.1,22.0,24.0,17.1,3.0,87,66,39,30.28,29.92,4,1,11,0.02
2013-2-7,29.0,22.8,14.0,12.0,3.4,0.0,67,44,30,30.52,30.28,4,0,8,0.01
2013-2-8,31.0,26.2,16.0,28.0,20.6,10.0,90,80,56,30.48,29.61,4,1,13,0.01
2013-2-9,20.0,17.1,13.0,17.0,13.8,9.0,88,86,83,30.19,29.58,6,3,14,0.01
2013-2-10,34.0,19.6,5.0,30.0,12.1,0.0,89,73,48,30.39,30.19,2,0,6,0.23
2013-2-11,40.0,28.7,17.0,38.0,22.7,7.0,91,78,58,30.35,29.61,1,0,6,0.18
2013-2-12,42.0,36.5,31.0,33.0,27.7,24.0,92,71,53,29.88,29.61,6,2,18,0.15
2013-2-13,41.0,32.4,26.0,24.0,22.4,20.0,83,67,51,29.87,29.70,3,0,7,0.01
2013-2-14,44.0,34.1,27.0,25.0,21.2,19.0,78,60,39,29.99,29.70,3,0,7,0.00
2013-2-15,51.0,37.2,27.0,33.0,28.4,21.0,88,72,49,29.99,29.90,4,1,12,0.00
2013-2-16,36.0,32.5,29.0,29.0,25.1,15.0,88,75,53,29.96,29.73,2,0,7,0.03
2013-2-17,28.0,20.2,16.0,18.0,9.9,-1.0,86,65,42,29.73,29.40,8,3,20,0.01
2013-2-18,30.0,21.1,13.0,2.0,-0.2,-2.0,53,40,26,30.16,29.68,7,3,20,0.00
2013-2-19,46.0,34.0,21.0,40.0,21.2,2.0,91,61,42,30.17,29.59,3,0,9,0.31
2013-2-20,41.0,30.8,25.0,39.0,19.0,9.0,91,63,42,29.78,29.54,6,2,18,0.31
2013-2-21,32.0,26.1,23.0,14.0,11.8,9.0,66,54,44,30.17,29.77,5,2,16,0.01
2013-2-22,40.0,29.7,21.0,23.0,18.6,13.0,78,64,44,30.38,30.17,2,0,8,0.00
2013-2-23,37.0,32.4,27.0,29.0,25.9,21.0,89,77,67,30.33,29.92,2,0,7,0.01
2013-2-24,34.0,31.9,30.0,32.0,29.6,28.0,91,91,89,29.92,29.69,2,0,6,0.40
2013-2-25,36.0,32.0,28.0,32.0,28.8,25.0,91,88,77,30.24,29.88,1,0,3,0.28
2013-2-26,41.0,33.9,26.0,34.0,27.1,23.0,91,77,58,30.34,30.15,4,0,8,0.02
2013-2-27,40.0,37.6,35.0,38.0,34.8,29.0,91,89,75,30.16,29.57,7,2,19,1.21
2013-2-28,44.0,36.3,32.0,37.0,32.8,30.0,92,87,73,29.64,29.53,1,0,5,0.13
2013-3-1,39.0,35.6,29.0,32.0,28.2,25.0,91,75,62,29.68,29.53,3,0,8,0.01
2013-3-2,41.0,35.5,30.0,28.0,25.4,23.0,78,67,57,29.68,29.62,4,1,9,0.00
2013-3-3,39.0,33.6,31.0,30.0,26.4,23.0,88,75,66,29.65,29.56,2,0,6,0.00
2013-3-4,38.0,32.7,28.0,26.0,22.2,19.0,79,66,53,29.74,29.58,5,2,15,0.00
2013-3-5,43.0,34.9,29.0,30.0,24.9,21.0,85,67,53,30.07,29.74,3,1,11,0.00
2013-3-6,38.0,34.9,33.0,33.0,30.4,28.0,90,83,69,30.10,30.04,6,2,19,0.14
2013-3-7,34.0,30.7,29.0,29.0,27.1,26.0,89,86,73,30.06,29.99,4,1,11,0.09
2013-3-8,34.0,30.2,28.0,32.0,27.5,25.0,92,90,77,30.15,29.94,1,0,6,0.05
2013-3-9,48.0,34.3,26.0,29.0,23.7,19.0,88,66,37,30.35,30.14,3,0,8,0.52
2013-3-10,44.0,31.9,21.0,31.0,25.7,18.0,89,79,58,30.42,30.31,4,0,8,0.01
2013-3-11,53.0,40.3,32.0,38.0,33.0,28.0,88,76,52,30.33,30.15,4,1,10,0.00
2013-3-12,55.0,47.7,40.0,50.0,44.6,37.0,92,89,78,30.16,29.73,3,1,12,0.46
2013-3-13,51.0,42.0,31.0,49.0,29.9,19.0,92,65,34,29.78,29.70,4,1,11,0.45
2013-3-14,33.0,29.5,22.0,23.0,14.0,5.0,71,52,41,29.83,29.71,5,2,14,0.00
2013-3-15,39.0,28.7,18.0,26.0,11.5,4.0,71,49,27,29.87,29.63,4,2,11,0.00
2013-3-16,39.0,32.3,27.0,25.0,13.8,8.0,72,48,29,29.86,29.66,3,1,9,0.00
2013-3-17,36.0,27.8,21.0,16.0,11.8,4.0,73,53,26,30.03,29.86,4,1,9,0.00
2013-3-18,38.0,29.5,16.0,24.0,9.8,0.0,84,46,25,30.45,30.24,2,0,7,0.00
2013-3-19,33.0,30.8,28.0,31.0,28.3,24.0,91,90,84,30.24,29.61,5,1,17,0.40
2013-3-20,37.0,29.0,23.0,25.0,20.0,17.0,91,71,45,29.81,29.70,6,2,16,0.40
2013-3-21,36.0,27.9,21.0,26.0,20.1,16.0,87,73,44,29.82,29.61,2,0,5,0.12
2013-3-22,39.0,31.6,26.0,24.0,18.3,15.0,88,59,40,29.74,29.61,4,1,9,0.11
2013-3-23,42.0,33.8,27.0,22.0,18.5,16.0,72,54,38,29.79,29.64,7,2,14,0.01
2013-3-24,45.0,36.5,30.0,25.0,21.1,18.0,71,54,40,29.81,29.73,3,1,10,0.00
2013-3-25,41.0,34.9,28.0,31.0,27.1,23.0,82,73,65,29.77,29.52,3,1,11,0.00
2013-3-26,47.0,38.7,33.0,28.0,23.7,19.0,75,56,34,29.78,29.54,3,1,8,0.00
2013-3-27,51.0,40.7,28.0,29.0,22.4,18.0,68,50,33,29.87,29.75,4,1,10,0.00
2013-3-28,47.0,40.6,35.0,33.0,31.0,28.0,87,69,49,30.02,29.87,2,0,6,0.00
2013-3-29,56.0,44.1,33.0,34.0,29.8,27.0,82,59,34,30.05,29.97,3,1,8,0.00
2013-3-30,56.0,44.9,33.0,31.0,22.8,15.0,77,46,22,30.10,30.01,4,1,9,0.00
2013-3-31,60.0,43.2,26.0,38.0,24.7,-99.9,84,54,24,30.12,29.76,4,1,14,0.01
2013-4-1,61.0,45.6,34.0,45.0,35.0,11.0,91,69,37,29.79,29.51,5,2,15,0.15
2013-4-2,39.0,32.8,27.0,16.0,12.2,9.0,56,42,31,29.94,29.79,9,3,16,0.04
2013-4-3,45.0,35.2,28.0,18.0,12.3,9.0,60,40,25,30.16,29.92,8,3,18,0.00
2013-4-4,55.0,40.5,27.0,24.0,15.6,11.0,60,39,18,30.29,30.05,3,1,13,0.00
2013-4-5,60.0,44.8,35.0,29.0,25.4,20.0,70,49,24,30.06,29.63,4,1,11,0.00
2013-4-6,45.0,40.4,31.0,24.0,13.0,4.0,55,35,19,30.33,29.88,5,-575,14,0.00
2013-4-7,55.0,45.7,29.0,36.0,19.9,6.0,72,39,21,30.33,30.00,6,-371,27,0.05
2013-4-8,65.0,51.3,41.0,40.0,35.5,29.0,88,59,26,30.09,29.95,4,1,7,0.05
2013-4-9,70.0,54.5,44.0,51.0,40.3,35.0,90,62,34,30.08,29.87,5,1,11,0.12
2013-4-10,65.0,50.7,44.0,46.0,42.6,39.0,90,76,47,30.01,29.86,3,0,9,0.18
2013-4-11,52.0,45.5,40.0,43.0,33.1,23.0,91,64,41,30.14,29.94,2,0,5,0.15
2013-4-12,40.0,36.7,35.0,35.0,32.6,29.0,91,85,64,30.16,29.79,6,1,15,0.46
2013-4-13,51.0,41.3,34.0,38.0,33.8,30.0,91,76,45,29.93,29.77,3,1,7,0.11
2013-4-14,50.0,43.2,35.0,37.0,29.2,22.0,89,60,35,30.21,29.91,3,1,14,0.01
2013-4-15,57.0,42.8,28.0,36.0,28.4,23.0,87,60,27,30.39,30.21,3,0,9,0.00
2013-4-16,64.0,50.3,36.0,48.0,38.5,32.0,89,66,41,30.40,30.07,4,1,15,0.00
2013-4-17,65.0,57.1,47.0,50.0,32.6,22.0,80,44,19,30.33,30.06,5,1,12,0.00
2013-4-18,65.0,49.7,34.0,40.0,29.5,23.0,78,49,25,30.42,30.15,5,1,13,0.00
2013-4-19,74.0,61.6,50.0,59.0,53.7,41.0,91,76,53,30.15,29.66,6,2,18,0.00
2013-4-20,65.0,52.5,43.0,60.0,37.9,19.0,90,62,31,30.21,29.60,5,2,11,0.52
2013-4-21,53.0,41.3,31.0,25.0,17.8,12.0,66,41,20,30.68,30.21,4,1,11,0.02
2013-4-22,50.0,39.6,28.0,31.0,25.5,17.0,87,60,28,30.75,30.60,6,1,15,0.00
2013-4-23,40.0,38.9,37.0,38.0,34.2,27.0,91,84,65,30.60,30.15,3,1,6,0.01
2013-4-24,77.0,54.6,39.0,47.0,40.5,30.0,91,65,20,30.15,29.79,3,2,10,0.01
2013-4-25,64.0,53.8,42.0,50.0,32.1,18.0,89,49,17,30.27,29.83,4,2,12,0.02
2013-4-26,60.0,47.1,34.0,37.0,30.4,25.0,84,55,31,30.43,30.27,5,1,10,0.02
2013-4-27,66.0,49.7,33.0,39.0,32.5,28.0,91,58,26,30.42,30.29,3,0,8,0.00
2013-4-28,71.0,53.3,36.0,38.0,31.1,23.0,87,49,20,30.34,30.21,4,1,12,0.00
2013-4-29,70.0,56.3,44.0,44.0,32.6,22.0,83,46,19,30.27,30.19,3,1,9,0.00
2013-4-30,52.0,46.4,42.0,33.0,29.8,27.0,69,53,38,30.31,30.25,0,0,2,0.00
2013-5-1,63.0,53.5,46.0,33.0,28.6,24.0,58,40,23,30.46,30.45,1,0,5,0.00
2013-5-2,78.0,54.3,40.0,42.0,36.0,29.0,86,56,18,30.49,30.35,5,1,13,0.00
2013-5-3,61.0,49.0,40.0,40.0,36.7,34.0,83,64,44,30.52,30.39,5,1,10,0.00
2013-5-4,60.0,47.0,35.0,41.0,35.4,31.0,91,67,38,30.39,30.31,4,1,9,0.00
2013-5-5,60.0,45.6,31.0,39.0,34.1,28.0,90,68,39,30.34,30.26,4,1,10,0.00
2013-5-6,72.0,50.3,33.0,46.0,39.4,30.0,92,70,31,30.29,30.15,4,0,8,0.00
2013-5-7,79.0,61.2,42.0,54.0,47.3,39.0,92,64,35,30.18,30.09,3,0,8,0.00
2013-5-8,73.0,61.4,50.0,60.0,54.4,47.0,91,79,56,30.20,30.05,3,1,11,0.09
2013-5-9,68.0,58.8,56.0,61.0,55.5,53.0,93,89,66,30.05,29.89,1,0,4,0.68
2013-5-10,80.0,63.5,52.0,57.0,50.7,-99.9,93,70,33,29.96,29.90,2,0,6,0.11
2013-5-11,70.0,62.3,57.0,59.0,55.7,51.0,91,79,64,29.92,29.70,4,1,14,0.06
2013-5-12,71.0,59.5,49.0,57.0,46.9,-99.9,92,69,34,29.81,29.57,5,1,10,0.25
2013-5-13,58.0,48.4,38.0,32.0,26.4,22.0,69,44,25,30.03,29.81,4,1,10,0.01
2013-5-14,57.0,46.7,34.0,33.0,27.7,22.0,86,51,26,30.05,29.97,4,1,7,0.00
2013-5-15,65.0,49.0,35.0,49.0,36.3,26.0,87,66,25,30.06,29.68,4,1,12,0.03
2013-5-16,80.0,57.9,47.0,49.0,19.1,-99.9,92,47,14,29.79,29.64,5,1,11,0.03
2013-5-17,68.0,57.2,49.0,41.0,31.0,-99.9,70,47,26,30.22,29.79,6,1,9,0.00
2013-5-18,74.0,58.0,42.0,45.0,39.6,31.0,90,56,22,30.30,30.22,3,0,5,0.00
2013-5-19,73.0,56.0,46.0,51.0,46.7,42.0,91,73,36,30.35,30.23,3,0,8,0.08
2013-5-20,82.0,66.5,54.0,62.0,57.3,51.0,93,75,47,30.23,29.92,2,0,6,0.11
2013-5-21,84.0,62.0,50.0,65.0,55.0,47.0,92,80,52,30.01,29.86,3,0,8,0.25
2013-5-22,68.0,55.4,49.0,60.0,51.0,46.0,92,86,69,30.06,29.89,3,0,7,0.38
2013-5-23,75.0,62.9,53.0,66.0,58.5,50.0,93,86,72,29.93,29.82,4,1,12,0.30
2013-5-24,70.0,61.5,47.0,65.0,58.4,45.0,93,90,80,29.83,29.66,3,0,8,0.77
2013-5-25,49.0,45.4,39.0,47.0,43.2,36.0,93,92,90,29.82,29.71,4,1,7,0.33
2013-5-26,56.0,46.2,38.0,40.0,36.5,34.0,92,71,45,30.09,29.72,6,2,10,0.09
2013-5-27,72.0,55.2,39.0,44.0,35.8,26.0,91,56,19,30.16,30.07,5,1,10,0.02
2013-5-28,76.0,57.8,40.0,50.0,42.0,33.0,92,61,21,30.23,30.15,2,0,5,0.00
2013-5-29,69.0,61.0,56.0,62.0,56.9,48.0,92,86,75,30.19,30.00,2,0,5,0.82
2013-5-30,87.0,73.0,61.0,67.0,62.9,59.0,94,74,44,30.09,30.01,2,0,7,0.51
2013-5-31,94.0,78.7,63.0,68.0,61.9,56.0,93,62,29,30.09,29.93,2,0,7,0.00
2013-6-1,92.0,78.7,65.0,65.0,61.6,59.0,83,59,34,29.98,29.86,3,1,11,0.00
2013-6-2,90.0,76.8,67.0,67.0,61.2,-99.9,85,64,34,29.89,29.73,6,2,20,0.00
2013-6-3,78.0,68.0,60.0,66.0,60.2,41.0,91,77,49,29.85,29.75,1,0,6,0.40
2013-6-4,70.0,59.3,46.0,47.0,41.7,38.0,81,54,33,30.09,29.83,3,1,8,0.06
2013-6-5,76.0,60.8,46.0,49.0,44.1,39.0,90,59,30,30.19,30.09,2,0,6,0.00
2013-6-6,75.0,62.9,52.0,51.0,46.5,42.0,82,57,35,30.19,30.10,2,0,7,0.00
2013-6-7,57.0,54.5,52.0,54.0,51.8,50.0,93,91,80,30.12,29.83,1,0,4,2.16
2013-6-8,77.0,61.4,51.0,62.0,54.9,49.0,93,81,56,30.00,29.62,3,1,8,2.17
2013-6-9,79.0,66.1,54.0,55.0,52.7,49.0,93,66,38,30.16,30.00,2,0,6,0.01
2013-6-10,69.0,60.4,53.0,58.0,54.1,50.0,92,81,55,30.20,30.02,2,0,5,0.64
2013-6-11,61.0,57.0,55.0,56.0,54.2,53.0,93,90,81,30.03,29.57,2,0,7,1.60
2013-6-12,69.0,60.8,55.0,55.0,52.3,50.0,94,75,52,29.81,29.56,6,1,9,0.51
2013-6-13,65.0,55.0,49.0,57.0,51.2,47.0,93,87,70,29.82,29.67,1,0,3,0.76
2013-6-14,74.0,58.1,50.0,57.0,51.3,47.0,93,80,46,29.77,29.64,2,0,6,1.40
2013-6-15,78.0,64.7,52.0,53.0,45.4,37.0,91,56,23,29.94,29.77,3,0,7,0.02
2013-6-16,75.0,64.5,52.0,60.0,51.4,44.0,80,64,38,29.94,29.71,2,0,8,0.00
2013-6-17,86.0,69.0,58.0,62.0,56.7,52.0,93,69,31,29.91,29.78,5,0,10,0.37
2013-6-18,75.0,61.3,57.0,63.0,57.7,55.0,94,88,61,29.95,29.88,4,0,7,0.60
2013-6-19,77.0,62.9,54.0,55.0,50.7,44.0,94,69,33,30.14,29.91,2,0,4,0.09
2013-6-20,80.0,62.8,48.0,53.0,48.1,41.0,93,65,29,30.26,30.14,2,0,7,0.01
2013-6-22,85.0,79.2,67.0,62.0,57.7,54.0,66,49,36,30.22,30.11,3,1,11,0.00
2013-6-23,90.0,75.8,63.0,69.0,62.0,54.0,78,63,48,30.16,30.00,4,1,11,0.00
2013-6-24,93.0,79.8,69.0,70.0,67.0,62.0,89,67,41,30.03,29.88,2,0,5,0.02
2013-6-25,92.0,77.8,67.0,68.0,65.1,63.0,90,68,39,29.93,29.72,4,1,15,0.02
2013-6-26,84.0,74.0,68.0,69.0,66.1,64.0,88,77,55,29.85,29.72,3,0,6,0.00
2013-6-27,71.0,66.0,62.0,65.0,61.9,59.0,91,87,75,29.86,29.80,1,0,2,0.00
2013-6-28,82.0,76.7,69.0,71.0,68.5,65.0,93,76,64,29.55,29.49,4,2,13,0.33
2013-6-29,84.0,74.2,69.0,68.0,65.8,63.0,92,77,55,29.72,29.51,4,1,12,0.01
2013-6-30,86.0,75.4,68.0,71.0,67.3,64.0,90,77,56,29.93,29.72,3,1,11,0.00
2013-7-1,82.0,73.6,70.0,75.0,69.8,67.0,92,88,70,30.08,29.93,2,0,7,0.29
2013-7-2,83.0,73.6,64.0,72.0,67.8,60.0,91,82,65,30.20,30.07,2,0,8,0.01
2013-7-3,87.0,75.1,61.0,71.0,66.4,58.0,91,76,53,30.20,30.13,3,1,14,0.00
2013-7-4,93.0,81.5,70.0,72.0,70.0,68.0,92,70,48,30.20,30.09,4,0,10,0.00
2013-7-5,94.0,82.4,73.0,73.0,70.2,68.0,88,69,44,30.16,30.03,3,1,9,0.00
2013-7-6,90.0,80.6,73.0,72.0,69.5,66.0,88,71,47,30.08,29.98,2,0,7,0.00
2013-7-7,93.0,77.7,67.0,75.0,68.5,63.0,89,75,47,30.02,29.90,1,0,6,0.00
2013-7-8,87.0,75.2,67.0,73.0,69.0,63.0,92,82,57,30.06,29.91,1,0,5,0.00
2013-7-9,73.0,67.4,63.0,66.0,63.1,60.0,92,86,78,30.10,30.04,1,0,2,0.00
2013-7-10,85.0,72.0,65.0,72.0,65.2,-99.9,92,83,64,30.07,29.79,3,0,10,0.04
2013-7-11,78.0,72.5,70.0,72.0,69.5,66.0,93,90,76,29.92,29.78,2,0,5,0.10
2013-7-12,76.0,69.3,64.0,67.0,59.2,54.0,91,71,54,30.19,29.91,3,0,7,0.01
2013-7-13,77.0,69.6,64.0,69.0,63.6,57.0,92,82,70,30.30,30.19,1,0,3,0.00
2013-7-14,91.0,77.3,67.0,73.0,68.8,65.0,94,77,43,30.30,30.20,2,0,3,0.00
2013-7-15,92.0,78.3,69.0,74.0,69.6,67.0,93,77,45,30.21,30.09,1,0,4,0.00
2013-7-16,92.0,78.4,66.0,70.0,65.7,61.0,92,68,36,30.16,30.10,2,0,8,0.00
2013-7-17,96.0,80.9,68.0,72.0,67.4,62.0,91,67,34,30.17,30.00,1,0,6,0.00
2013-7-18,94.0,82.3,73.0,72.0,69.2,67.0,86,67,42,30.01,29.93,2,0,6,0.00
2013-7-19,97.0,83.7,71.0,75.0,70.7,67.0,91,68,38,29.95,29.72,3,1,12,0.00
2013-7-20,93.0,83.1,74.0,75.0,70.4,64.0,86,67,45,29.80,29.65,2,0,8,0.00
2013-7-21,85.0,74.3,67.0,65.0,61.8,59.0,87,67,43,29.98,29.80,2,0,5,0.00
2013-7-22,84.0,70.6,63.0,68.0,63.7,60.0,92,80,50,30.01,29.89,2,0,5,0.00
2013-7-23,81.0,71.0,68.0,75.0,68.2,64.0,93,90,78,29.88,29.54,3,0,8,1.21
2013-7-24,83.0,74.2,66.0,71.0,65.3,52.0,94,76,48,29.95,29.58,2,0,6,0.01
2013-7-25,65.0,58.8,57.0,55.0,51.4,45.0,93,77,62,30.10,29.95,3,1,5,1.83
2013-7-26,70.0,62.6,57.0,67.0,60.0,55.0,93,91,86,30.06,29.94,2,1,5,2.00
2013-7-27,84.0,70.4,57.0,67.0,60.4,55.0,94,74,41,30.06,29.99,2,0,5,0.02
2013-7-28,86.0,71.0,63.0,69.0,64.8,60.0,92,82,53,30.01,29.95,2,0,4,0.01
2013-7-29,84.0,72.3,66.0,69.0,65.3,62.0,93,80,54,30.03,29.96,3,0,6,0.36
2013-7-30,82.0,68.9,58.0,64.0,58.1,52.0,93,72,39,30.09,30.03,3,0,4,0.36
2013-7-31,83.0,69.6,58.0,63.0,56.9,49.0,91,68,33,30.14,30.03,2,0,4,0.00
2013-8-1,80.0,68.4,60.0,63.0,60.1,57.0,92,77,50,30.05,29.88,4,0,10,0.00
2013-8-2,82.0,70.1,63.0,67.0,60.6,55.0,93,74,40,29.88,29.79,3,0,5,0.67
2013-8-3,78.0,69.2,62.0,62.0,60.3,57.0,91,75,49,29.86,29.78,2,0,8,0.02
2013-8-4,80.0,66.3,57.0,59.0,55.1,51.0,90,70,39,29.89,29.77,2,0,7,0.00
2013-8-5,76.0,61.7,52.0,54.0,46.4,37.0,91,62,26,30.05,29.89,3,1,7,0.00
2013-8-6,81.0,62.7,48.0,53.0,48.8,45.0,91,64,33,30.14,30.05,1,0,4,0.00
2013-8-7,81.0,66.2,53.0,59.0,52.0,45.0,91,65,30,30.19,30.11,2,0,7,0.00
2013-8-8,79.0,69.6,63.0,70.0,63.4,54.0,91,81,69,30.14,30.01,2,0,6,0.05
2013-8-9,74.0,71.2,69.0,72.0,68.5,66.0,94,91,86,30.03,29.75,2,0,12,1.09
2013-8-10,82.0,71.6,60.0,69.0,59.7,52.0,94,70,37,30.01,29.79,3,0,5,0.06
2013-8-11,80.0,65.4,52.0,57.0,52.8,47.0,92,68,37,30.08,30.00,2,0,5,0.01
2013-8-21,88.0,72.4,60.0,65.0,60.4,57.0,90,70,39,30.14,30.07,1,0,5,0.00
2013-8-22,85.0,74.0,64.0,69.0,64.9,60.0,88,74,49,30.08,29.87,2,0,9,0.00
2013-8-23,79.0,70.5,63.0,67.0,57.7,49.0,90,66,39,30.14,29.86,3,1,7,0.00
2013-8-24,78.0,63.5,50.0,50.0,46.3,40.0,88,58,27,30.37,30.17,3,0,6,0.00
2013-8-25,83.0,66.0,48.0,55.0,46.8,-99.9,91,57,27,30.40,30.23,1,0,4,0.00
2013-8-26,79.0,70.5,63.0,65.0,59.7,53.0,83,69,55,30.23,29.91,2,0,6,0.00
2013-8-27,84.0,72.0,67.0,68.0,65.6,63.0,93,81,54,29.91,29.88,1,0,3,0.01
2013-8-28,86.0,75.2,64.0,65.0,62.2,61.0,89,66,47,30.01,29.90,2,0,5,0.00
2013-8-29,64.0,62.9,60.0,61.0,58.8,54.0,91,86,82,30.11,29.99,2,0,4,0.00
2013-8-30,66.0,60.9,59.0,60.0,56.7,55.0,89,87,81,30.07,30.00,0,0,4,0.00
2013-9-3,79.0,71.3,61.0,69.0,65.7,57.0,94,83,65,29.85,29.74,2,0,7,0.03
2013-9-4,79.0,66.6,55.0,59.0,54.3,50.0,93,68,37,29.96,29.85,2,0,7,0.00
2013-9-5,68.0,60.4,48.0,59.0,50.9,42.0,92,73,41,30.18,29.90,2,0,5,0.04
2013-9-6,69.0,53.2,40.0,45.0,40.4,35.0,92,67,31,30.28,30.14,2,0,4,0.01
2013-9-7,79.0,61.8,48.0,54.0,46.9,43.0,83,62,29,30.13,29.91,2,0,8,0.00
2013-9-8,72.0,60.7,48.0,59.0,46.2,-99.9,88,64,35,30.13,29.79,4,1,7,0.00
2013-9-9,69.0,52.4,40.0,43.0,39.1,36.0,90,66,33,30.27,30.13,2,0,7,0.00
2013-9-24,65.0,50.5,39.0,43.0,39.4,36.0,89,69,39,30.03,29.85,3,1,5,0.00
2013-9-25,67.0,53.1,42.0,49.0,44.5,39.0,92,74,51,30.02,29.91,3,0,5,0.00
2013-9-26,65.0,55.7,50.0,50.0,46.6,44.0,87,73,50,30.16,30.02,1,0,3,0.00
2013-9-27,62.0,55.6,48.0,52.0,49.2,45.0,91,80,64,30.30,30.16,1,0,4,0.00
2013-9-28,72.0,56.2,43.0,55.0,47.9,41.0,94,76,46,30.37,30.29,2,0,5,0.00
2013-9-29,69.0,51.6,43.0,51.0,42.2,-99.9,93,77,37,30.31,30.16,1,0,3,0.00
2013-9-30,69.0,53.7,45.0,50.0,46.6,43.0,93,79,45,30.17,30.00,1,0,4,0.00
2013-10-18,65.0,58.3,46.0,58.0,48.4,41.0,93,72,41,29.95,29.65,4,1,10,0.03
2013-10-19,65.0,52.4,41.0,45.0,39.8,36.0,87,66,34,30.01,29.80,2,0,6,0.01
2013-10-20,60.0,50.5,40.0,48.0,34.3,-99.9,93,61,30,30.05,29.73,4,1,8,0.02
2013-10-21,66.0,49.2,37.0,41.0,36.1,32.0,85,64,33,30.15,30.04,3,0,6,0.00
2013-10-22,65.0,52.5,42.0,50.0,43.3,37.0,92,72,48,30.04,29.75,4,0,11,0.00
2013-10-23,50.0,42.8,34.0,37.0,32.8,29.0,89,69,45,29.84,29.63,1,0,3,0.00
2013-10-24,52.0,43.6,35.0,34.0,26.8,19.0,81,55,30,29.91,29.68,5,1,12,0.00
2013-10-25,48.0,41.1,32.0,33.0,25.7,22.0,86,55,38,30.19,29.92,3,1,7,0.00
2013-10-26,54.0,41.5,28.0,33.0,26.8,21.0,89,60,27,30.19,29.92,4,1,13,0.00
2013-10-27,53.0,45.0,37.0,37.0,29.1,-99.9,87,58,37,30.09,29.85,4,1,9,0.01
2013-10-28,57.0,42.4,31.0,31.0,25.8,-99.9,86,58,36,30.38,30.09,4,1,10,0.01
2013-10-29,46.0,34.0,25.0,25.0,21.9,14.0,83,64,28,30.48,30.38,2,0,4,0.00
2013-10-30,51.0,37.8,29.0,41.0,32.8,24.0,90,82,61,30.40,30.23,1,0,3,0.02
2013-11-12,47.0,33.5,25.0,37.0,22.7,13.0,88,65,51,30.22,29.93,4,1,11,0.12
2013-11-13,35.0,26.7,21.0,14.0,12.1,7.0,71,55,34,30.32,30.21,3,1,7,0.01
2013-11-14,49.0,36.8,27.0,21.0,17.2,14.0,59,46,28,30.19,30.08,5,1,9,0.00
2013-11-15,60.0,44.4,33.0,30.0,18.0,8.0,63,37,13,30.23,30.14,2,0,8,0.00
2013-11-16,59.0,43.9,36.0,31.0,23.3,-99.9,73,50,20,30.35,30.22,2,0,3,0.00
2013-11-17,52.0,41.5,30.0,44.0,35.2,25.0,92,79,60,30.35,29.91,1,0,2,0.05
2013-11-18,64.0,58.1,45.0,59.0,47.6,37.0,94,72,41,29.91,29.59,4,2,10,0.28